Regional Weather Roundup
Issued by NWS

Home | Current Version | Previous Version | Text Only | Print | Product List | Glossary On
Versions: 1 2 3 4 5 6 7 8 9 10 11 12 13 14 15 16 17 18 19 20 21 22 23 24 25 26 27 28 29 30 31 32 33 34 35 36 37 38 39 40 41 42 43 44 45 46 47 48 49 50
000
ASUS43 KIND 250209
RWRIN

WEATHER ROUNDUP FOR INDIANA
NATIONAL WEATHER SERVICE INDIANAPOLIS IN
900 PM EST FRI NOV 24 2017

NOTE: "FAIR" INDICATES FEW OR NO CLOUDS BELOW 12,000 FEET WITH NO
SIGNIFICANT WEATHER AND/OR OBSTRUCTIONS TO VISIBILITY.

* - STATION DOES NOT REPORT WEATHER SUCH AS PRECIPITATION OR FOG.

+ - STATION NOT QUALITY CONTROLLED BY THE NATIONAL WEATHER SERVICE.
    USE DATA WITH CAUTION...ESPECIALLY DEWPOINT AND RELATIVE
    HUMIDITY OBSERVATIONS.

INZ001>003-010>013-019-020-250300-
NORTHWEST INDIANA

CITY           SKY/WX    TMP DP  RH WIND       PRES   REMARKS
GARY /AIRPORT/ PTCLDY    55  34  44 S16G37    29.52F
KNOX *+        PTCLDY    50  34  53 S15G25    29.56S
LA PORTE +     PTCLDY    50  36  58 SW10G18   29.56S
MICHIGAN CITY+ MOCLDY    50  34  53 S17G24    29.54R
MONTICELLO +   PTCLDY    51  32  48 S18G25    29.59S
RENSSELAER +   PTCLDY    52  28  40 S22G30    29.58S
VALPARAISO       N/A     52  36  54 S15G28    29.56S

$$

LMZ046-743>745-250300-
SOUTHERN LAKE MICHIGAN

STATION/POSITION TIME  TEMP    WIND        PRES    WAVE
                       AIR SEA DIR/SP/G            HT
                 (UTC) (F)     (DEG/KT/KT) (MB)    (FT)
BURNS HARBOR     0130   53     190/ 25/ 30 1000.0S
MICHIGAN CITY    0140   53     170/ 24/ 29   N/A

$$

INZ004-005-014>016-021>024-250300-
NORTH CENTRAL INDIANA

CITY           SKY/WX    TMP DP  RH WIND       PRES   REMARKS
ELKHART        CLEAR     50  34  53 SW16      29.56S
GOSHEN         CLEAR     51  32  48 S18G25    29.57R
LOGANSPORT +   CLEAR     46  34  61 S15       29.63R
PERU/GRISSOM   MOCLDY    51  34  52 SW18G26   29.61R
ROCHESTER +    CLEAR     52  34  50 S15G22    29.60S
SOUTH BEND     PTCLDY    50  36  58 SW17      29.56S
WARSAW +       PTCLDY    50  32  50 S10G17    29.59R

$$

INZ006>009-017-018-025>027-250300-
NORTHEAST INDIANA

CITY           SKY/WX    TMP DP  RH WIND       PRES   REMARKS
AUBURN +       CLEAR     50  32  50 S13G24    29.59F
FORT WAYNE     PTCLDY    50  33  52 S25G31    29.59F
HUNTINGTON +   CLEAR     49  30  48 S10G20    29.60F

$$

INZ028-029-035-036-043>045-051>053-250300-
WEST CENTRAL INDIANA

CITY           SKY/WX    TMP DP  RH WIND       PRES   REMARKS
CRAWFORDSVL +  CLEAR     49  33  54 S18G25    29.65R
GREENCASTLE +  CLEAR     52  30  43 S12G17    29.68S
LAFAYETTE      CLEAR     51  34  52 S9        29.62R
TERRE HAUTE    CLEAR     52  32  46 S15G25    29.69R

$$

INZ030>032-037>040-046>048-054>057-064-065-250300-
CENTRAL INDIANA

CITY           SKY/WX    TMP DP  RH WIND       PRES   REMARKS
CP ATTERBURY + CLEAR     50  28  43 S9G16     29.72F
COLUMBUS       CLEAR     48  23  37 S13       29.73F
FISHERS *+     CLEAR     48  34  57 S15       29.67
FRANKFORT +    PTCLDY    51  35  56 SW13G21   29.65R
INDIANAPOLIS   PTCLDY    51  30  44 S16       29.68F
-EAGLE CREEK   CLEAR     52  29  41 S15       29.66F
KOKOMO +       CLEAR     50  33  52 S20       29.63R
MARION +       CLEAR     47  32  55 S18G25    29.63F
MT COMFORT *+  CLEAR     48  34  57 S15       29.69R
SHELBYVILLE    CLEAR     50  28  42 S16G24    29.70F
ZIONSVILLE +   CLEAR     49  32  51 S17G29    29.65F

$$

INZ033-034-041-042-049-050-058-059-250300-
EAST CENTRAL INDIANA

CITY           SKY/WX    TMP DP  RH WIND       PRES   REMARKS
MUNCIE         CLEAR     50  28  42 S16G24    29.65F
RICHMOND +     PTCLDY    43  32  65 S14       29.72F

$$

INZ060-061-067>069-081>083-085>088-250300-
SOUTHWEST INDIANA

CITY           SKY/WX    TMP DP  RH WIND       PRES   REMARKS
EVANSVILLE     CLEAR     53  32  44 S13       29.77S
HUNTINGBURG +  CLEAR     51  30  44 S13       29.77F
WASHINGTON +   CLEAR     51  30  45 S14G23    29.72S

$$

INZ062-063-066-070>080-084-089>092-250300-
SOUTH CENTRAL AND SOUTHEAST INDIANA

CITY           SKY/WX    TMP DP  RH WIND       PRES   REMARKS
BEDFORD +      CLEAR     50  27  40 S9        29.73F
BLOOMINGTON    CLEAR     51  29  42 S12       29.71F
MADISON *+     PTCLDY    50  27  40 S9        29.79F
NORTH VERNON + CLEAR     50  27  40 S13       29.76F
SEYMOUR +      CLEAR     50  28  43 S12       29.75F

$$





USA.gov is the U.S. government's official web portal to all federal, state and local government web resources and services.